Terminal Aerodrome Forecast
Issued by NWS Lake Charles, LA

Home | Current Version | Previous Version | Text Only | Print | Product List | Glossary On
Versions: 1 2 3 4 5 6 7 8 9 10 11 12 13 14 15 16
000
FTUS44 KLCH 271134
TAFARA
TAF
KARA 271134Z 2712/2812 01007KT P6SM BKN150
     FM271600 35008KT P6SM FEW050 BKN150
     FM280000 01003KT P6SM BKN200=

USA.gov is the U.S. government's official web portal to all federal, state and local government web resources and services.